Погода в Пионерском

Россия / Камчатский край     53°05′23″N   158°33′03″E
темп.,
°C
ветер,
м/с
пор.,
м/с
влажн.,
%
обл.,
%
осадки,
мм/ч
давл.,
гПа
погр.,
м
9 декабря, чт
чт900:00−3з916697 0.0 10111196
03:00−4зсз1116705 0.0 10111336
06:00−5зсз1219695 0.0 10121557
09:00−5зсз1220675 0.0 10141541
12:00−3зсз1321685 0.0 10152024
15:00−3зсз12196970 0.0 10161772
18:00−3зсз1118674 0.0 10191331
21:00−3зсз917642 0.0 10201122
10 декабря, пт
пт1000:00−5зсз411713 0.0 1022754
03:00−7сз55795 0.0 1023178
06:00−8сз56815 0.0 1024174
09:00−7сз568235 0.0 1024163
12:00−5сз558999 0.0 1024148
15:00−2сз339093 0.1 1023127
18:00−2зсз338841 0.1 102386
21:00−1сз45855 0.0 1023134
11 декабря, сб
сб1100:00−2зсз23845 0.0 102462
03:00−2сз348399 0.0 102491
06:00−2сз4582100 0.0 1023129
09:00−2сз3482100 0.0 1023108
12:00−1сз3482100 0.0 1023141
15:000сз3482100 0.0 1020137
18:00−1сз2282100 0.0 102051
21:00−3сз228291 0.0 102067
12 декабря, вс
вс1200:00−4сз2283100 0.0 101986
03:00−4сз2283100 0.0 101885
06:00−5сз2283100 0.0 101790
09:00−5сз3283100 0.0 1015104
12:00−4сз3482100 0.0 1014137
15:00−3сз4480100 0.0 1011130
18:00−3сз4477100 0.0 1010117
21:00−3ссз4577100 0.0 1009132
13 декабря, пн
пн1300:00−4сз4574100 0.0 1008142
03:00−4сз5672100 0.0 1007168
06:00−4сз4570100 0.0 1007178
09:00−4сз4570100 0.0 1007180
12:00−4сз4570100 0.0 1007212
15:00−3сз446944 0.0 1006244
18:00−4сз337297 0.0 1006144
21:00−5сз328291 0.0 1007152